Regional Weather Roundup
Issued by NWS

Home | Current Version | Previous Version | Graphics & Text | Print | Product List | Glossary On
Versions: 1 2 3 4 5 6 7 8 9 10 11 12 13 14 15 16 17 18 19 20 21 22 23 24 25 26 27 28 29 30 31 32 33 34 35 36 37 38 39 40 41 42 43 44 45 46 47 48 49 50
706
ASUS43 KLSX 070007
RWRMO

WEATHER SUMMARY FOR MISSOURI
NATIONAL WEATHER SERVICE SPRINGFIELD MO
600 PM CST SAT FEB 06 2016

NOTE: "FAIR" INDICATES FEW OR NO CLOUDS BELOW 12,000 FEET WITH NO
       SIGNIFICANT WEATHER AND/OR OBSTRUCTIONS TO VISIBILITY.
       CURRENT SKY AND/OR WEATHER CONDITIONS ARE NOT AVAILABLE FOR
       CHILLICOTHE AND FARMINGTON.

MOZ001>031-035>038-043-044-053-054-070100-
...NORTHERN AND WESTERN MISSOURI...

CITY           SKY/WX    TMP DP  RH WIND       PRES   REMARKS
KANSAS CTY INT PTCLDY    41  29  62 SW9       30.16F
6HR MIN TEMP:  41; 6HR MAX TEMP:  49;

KANSAS C DTWN  CLEAR     47  28  47 SW7       30.18F
6HR MIN TEMP:  45; 6HR MAX TEMP:  50;

LEE`S SUMMIT   CLEAR     45  29  53 SW12      30.18F
6HR MIN TEMP:  44; 6HR MAX TEMP:  49;

ST JOSEPH      CLEAR     42  29  59 SW9       30.15F
6HR MIN TEMP:  41; 6HR MAX TEMP:  48;

CHILLICOTHE      N/A     44  30  57 SW3       30.17F
6HR MIN TEMP:  43; 6HR MAX TEMP:  49;

KIRKSVILLE     CLEAR     41  28  60 SW6       30.15F
6HR MIN TEMP:  41; 6HR MAX TEMP:  49;


$$
MOZ066>068-077>081-088>096-101>105-070100-
...SOUTHWEST MISSOURI...

CITY           SKY/WX    TMP DP  RH WIND       PRES   REMARKS
SPRINGFIELD    CLEAR     48  25  40 W8        30.22S
6HR MIN TEMP:  48; 6HR MAX TEMP:  54;

JOPLIN         CLEAR     46  30  53 SW6       30.25F
6HR MIN TEMP:  46; 6HR MAX TEMP:  53;


$$
MOZ032>034-039>042-045>050-055>058-069>072-070100-
...CENTRAL MISSOURI...

CITY           SKY/WX    TMP DP  RH WIND       PRES   REMARKS
COLUMBIA       CLEAR     47  27  45 W9        30.19S
6HR MIN TEMP:  46; 6HR MAX TEMP:  55;

JEFFERSON CITY CLEAR     49  27  42 W5        30.20S
6HR MIN TEMP:  48; 6HR MAX TEMP:  55;

ROLLA          CLEAR     46  27  47 SW9       30.18F
6HR MIN TEMP:  45; 6HR MAX TEMP:  55;

SEDALIA        CLEAR     44  27  51 SW7       30.21S
6HR MIN TEMP:  44; 6HR MAX TEMP:  52;

WHITEMAN AFB   CLEAR     43  28  54 SW8       30.18F
WARRENSBURG    CLEAR     43  30  61 SW7       30.20S
OSAGE BEACH    CLEAR     50  27  40 SW8       30.21S

$$
MOZ051-052-059>065-070100-
...EAST CENTRAL MISSOURI...

CITY           SKY/WX    TMP DP  RH WIND       PRES   REMARKS
ST LOUIS INTL  PTCLDY    50  26  39 SW6       30.19F
6HR MIN TEMP:  50; 6HR MAX TEMP:  58;

SPIRIT OF STL  PTCLDY    48  27  44 SW6       30.19S
6HR MIN TEMP:  48; 6HR MAX TEMP:  56;

ST CHARLES     CLEAR     47  28  47 SW8       30.18S
6HR MIN TEMP:  45; 6HR MAX TEMP:  56;


$$
MOZ072>076-082>087-097>100-106>115-070100-
...SOUTH CENTRAL AND SOUTHEAST MISSOURI...

CITY           SKY/WX    TMP DP  RH WIND       PRES   REMARKS
CAPE GIRARDEAU CLEAR     46  24  42 S8        30.26S
6HR MIN TEMP:  46; 6HR MAX TEMP:  56;

FARMINGTON     PTCLDY    48  19  31 SW6       30.22S
6HR MIN TEMP:  47; 6HR MAX TEMP:  56;

POPLAR BLUFF   CLEAR     44  24  45 S8        30.26S
6HR MIN TEMP:  44; 6HR MAX TEMP:  56;

WEST PLAINS    CLEAR     46  17  31 S6        30.24F
6HR MIN TEMP:  46; 6HR MAX TEMP:  54;


$$



USA.gov is the U.S. government's official web portal to all federal, state and local government web resources and services.